Flag for U.S.A. Weather past 2 weeks in Albany, New York, U.S.A.

Now
63 °F

Cloudy.


Feels Like: 63 °F
Forecast: 57 / 67 °F
Wind: 3 mph from North

Location: Albany County Airport

Current Time: Oct 1, 2014 at 12:56:27 PM

Latest Report: Oct 1, 2014 at 11:51 AM


Visibility: 9 mi

Pressure: 30.11 "Hg

Humidity: 81%

Dew point: 57 °F

Location of AlbanyLocation

Historic Weather in Albany — Graph

°F

Albany temperature yesterday

Maximum temperature yesterday: 74 °F (at 2:51 PM)
Minimum temperature yesterday: 55 °F (at 5:51 AM)
Average temperature yesterday: 64 °F

Past Weeks' High & Low Weather Summary

 TemperatureHumidityPressure
High83 °F (Sep 28, 3:51 PM)97% (Sep 24, 6:51 AM)30.60 "Hg (Sep 24, 6:51 AM)
Low41 °F (Sep 23, 5:51 AM)34% (Sep 28, 3:51 PM)29.57 "Hg (Sep 21, 8:51 PM)
Average60 °F73%30.13 "Hg
* Reported Sep 16 11:51 AM — Oct 1 11:51 AM, Albany, Weather by CustomWeather, © 2014

Note: Actual official high and low records may vary slightly from our data, if they occured in-between our weather recording intervals... More about our weather records

Advertising

Albany weather history for previous 24 hours

 ConditionsComfort  
Time TempWeatherWind HumidityBarometerVisibility
11:51 AM
Oct 1
63 °FCloudy.3 mph81%30.11 "Hg9 mi
10:51 AM61 °FLight rain. Fog.6 mph90%30.11 "Hg4 mi
9:51 AM62 °FLight rain. Mostly cloudy.5 mph83%30.09 "Hg10 mi
8:51 AM61 °FCloudy.3 mph87%30.08 "Hg10 mi
7:51 AM61 °FMostly cloudy.No wind87%30.07 "Hg10 mi
6:51 AM60 °FMostly cloudy.No wind86%30.05 "Hg10 mi
5:51 AM60 °FLight rain. Overcast.3 mph86%30.03 "Hg10 mi
4:51 AM61 °FOvercast.No wind83%30.03 "Hg10 mi
3:51 AM60 °FOvercast.No wind86%30.03 "Hg10 mi
2:51 AM60 °FOvercast.No wind86%30.02 "Hg10 mi
1:51 AM61 °FOvercast.No wind83%30.03 "Hg10 mi
12:51 AM61 °FOvercast.No wind81%30.03 "Hg10 mi
11:51 PM
Sep 30
61 °FMostly cloudy.No wind81%30.02 "Hg10 mi
10:51 PM60 °FPassing clouds.No wind83%30.01 "Hg10 mi
9:51 PM61 °FPassing clouds.6 mph81%30.00 "Hg10 mi
8:51 PM62 °FPassing clouds.6 mph78%29.99 "Hg10 mi
7:51 PM65 °FPassing clouds.5 mph73%29.97 "Hg10 mi
6:51 PM67 °FPartly sunny.3 mph66%29.95 "Hg10 mi
5:51 PM69 °FPartly sunny.5 mph63%29.94 "Hg10 mi
4:51 PM72 °FPartly sunny.7 mph57%29.93 "Hg10 mi
3:51 PM74 °FBroken clouds.7 mph53%29.92 "Hg10 mi
2:51 PM74 °FBroken clouds.N/A56%29.93 "Hg10 mi
1:51 PM72 °FBroken clouds.6 mph59%29.94 "Hg10 mi
12:51 PM71 °FPartly sunny.8 mph61%29.96 "Hg10 mi
Weather by CustomWeather, © 2014

See weather overviewHow to use our weather pages